Weather History for Land O' Lakes, WI

Change the Weather History Date:

Thursday, May 9, 2013

  Actual Average (KEGV) Record (KEGV)
Temperature  
Mean Temperature 42 °F -  
Max Temperature 51 °F 68 °F 80 °F (2001)
Min Temperature 33 °F 40 °F 24 °F (1999)
Degree Days  
Heating Degree Days 23    
Moisture  
Dew Point 36 °F    
Average Humidity 85    
Maximum Humidity 100    
Minimum Humidity 62    
Precipitation  
Precipitation 0.07 in - - ()
Sea Level Pressure  
Sea Level Pressure 30.10 in    
Wind  
Wind Speed 7 mph (NNE)    
Max Wind Speed 15 mph    
Max Gust Speed 21 mph    
Visibility 8 miles    
Events Rain    
Averages and records for this station are not official NWS values.
T = Trace of Precipitation, MM = Missing Value Source: NWS Daily Summary

Daily Weather History Graph

Daily Weather History Graph

Search for Another Location

Airport:

Trip Planner

Search our weather history database for the weather conditions in past years. The results will help you decide how hot, cold, wet, or windy it might be!

Date:

Astronomy

May. 09, 2013 Rise Set
Actual Time 5:31 AM CDT 8:15 PM CDT
Civil Twilight 4:57 AM CDT 8:50 PM CDT
Nautical Twilight 4:13 AM CDT 9:34 PM CDT
Astronomical Twilight 3:22 AM CDT 10:25 PM CDT
Moon 5:17 AM CDT (5/9) 8:10 PM CDT (5/9)
Length of Visible Light 15h 53m
Length of Day
14h 44m
Waning Crescent, 0% of the Moon is Illuminated
May 9
Waning Crescent
May 9
New
May 17
First Quarter
May 24
Full
May 31
Last Quarter

Hourly Weather History & Observations

Time (CDT) Temp. Windchill Dew Point Humidity Pressure Visibility Wind Dir Wind Speed Gust Speed Precip Events Conditions
12:35 AM 51.8 °F - 39.2 °F 62% 30.03 in 10.0 mi NNW 4.6 mph - N/A   Mostly Cloudy
1:15 AM 51.8 °F - 39.2 °F 62% 30.02 in 10.0 mi North 5.8 mph - N/A   Scattered Clouds
2:15 AM 51.8 °F - 39.2 °F 62% 30.01 in 10.0 mi NNE 5.8 mph - N/A   Mostly Cloudy
2:35 AM 50.0 °F - 39.2 °F 66% 30.01 in 10.0 mi North 3.5 mph - N/A   Overcast
2:55 AM 50.0 °F - 39.2 °F 66% 30.01 in 10.0 mi Calm Calm - N/A   Overcast
3:35 AM 50.0 °F - 41.0 °F 71% 30.01 in 10.0 mi North 4.6 mph - N/A   Overcast
4:35 AM 50.0 °F - 41.0 °F 71% 30.01 in 10.0 mi Calm Calm - N/A   Mostly Cloudy
5:15 AM 50.0 °F - 41.0 °F 71% 30.01 in 10.0 mi NNE 3.5 mph - N/A Rain Light Rain
5:55 AM 46.4 °F - 41.0 °F 81% 30.02 in 10.0 mi Calm Calm - N/A   Overcast
7:15 AM 48.2 °F - 41.0 °F 76% 30.03 in 10.0 mi NNE 9.2 mph - N/A   Overcast
7:55 AM 50.0 °F - 41.0 °F 71% 30.03 in 10.0 mi NNE 9.2 mph 16.1 mph N/A   Mostly Cloudy
8:15 AM 50.0 °F - 41.0 °F 71% 30.03 in 10.0 mi NNE 11.5 mph - N/A   Overcast
9:15 AM 46.4 °F 42.4 °F 41.0 °F 81% 30.07 in 10.0 mi North 8.1 mph - N/A   Overcast
9:35 AM 46.4 °F 41.9 °F 41.0 °F 81% 30.07 in 10.0 mi North 9.2 mph - N/A   Overcast
9:55 AM 46.4 °F 42.4 °F 41.0 °F 81% 30.08 in 10.0 mi North 8.1 mph - N/A   Mostly Cloudy
10:15 AM 44.6 °F 38.8 °F 41.0 °F 87% 30.08 in 10.0 mi NNE 11.5 mph - N/A   Mostly Cloudy
10:35 AM 44.6 °F 39.2 °F 39.2 °F 81% 30.09 in 10.0 mi NNE 10.4 mph - N/A   Overcast
10:55 AM 44.6 °F 39.2 °F 39.2 °F 81% 30.09 in 10.0 mi NNE 10.4 mph - N/A   Overcast
11:15 AM 44.6 °F 39.2 °F 39.2 °F 81% 30.10 in 10.0 mi North 10.4 mph - N/A   Overcast
11:35 AM 44.6 °F 38.1 °F 37.4 °F 76% 30.09 in 10.0 mi North 13.8 mph - N/A   Overcast
11:55 AM 44.6 °F 38.4 °F 37.4 °F 76% 30.10 in 10.0 mi NNE 12.7 mph 20.7 mph N/A   Overcast
12:15 PM 44.6 °F 37.8 °F 37.4 °F 76% 30.10 in 10.0 mi NNE 15.0 mph 19.6 mph N/A   Overcast
12:35 PM 44.6 °F 39.2 °F 37.4 °F 76% 30.10 in 10.0 mi NE 10.4 mph - N/A   Overcast
12:55 PM 44.6 °F 39.7 °F 37.4 °F 76% 30.10 in 10.0 mi NE 9.2 mph - N/A   Overcast
1:15 PM 42.8 °F 38.0 °F 37.4 °F 81% 30.11 in 10.0 mi NE 8.1 mph - N/A Rain Light Rain
1:35 PM 42.8 °F 37.5 °F 37.4 °F 81% 30.12 in 10.0 mi NNE 9.2 mph - N/A   Drizzle
1:55 PM 41.0 °F 35.8 °F 37.4 °F 87% 30.12 in 10.0 mi NNE 8.1 mph - N/A   Drizzle
2:35 PM 39.2 °F 32.0 °F 37.4 °F 93% 30.12 in 7.0 mi NNE 11.5 mph - N/A Rain Light Rain
2:55 PM 37.4 °F 31.4 °F 35.6 °F 93% 30.12 in 4.0 mi North 8.1 mph - N/A Rain Rain
3:15 PM 37.4 °F 31.4 °F 35.6 °F 93% 30.12 in 4.0 mi NNE 8.1 mph - N/A Rain Light Rain
3:35 PM 35.6 °F 28.0 °F 35.6 °F 100% 30.12 in 4.0 mi NNE 10.4 mph - 0.01 in Rain Light Rain
3:55 PM 35.6 °F 28.0 °F 33.8 °F 93% 30.13 in 4.0 mi NNE 10.4 mph 17.3 mph 0.01 in Rain Light Rain
4:15 PM 35.6 °F 27.1 °F 33.8 °F 93% 30.13 in 5.0 mi NNE 12.7 mph - N/A Rain Light Rain
4:35 PM 35.6 °F 27.5 °F 33.8 °F 93% 30.13 in 4.0 mi NE 11.5 mph 18.4 mph N/A Rain Light Rain
4:55 PM 35.6 °F 29.2 °F 33.8 °F 93% 30.13 in 3.0 mi NNE 8.1 mph - 0.01 in Rain Rain
5:15 PM 33.8 °F 24.8 °F 33.8 °F 100% 30.13 in 4.0 mi NNE 12.7 mph - 0.01 in   Overcast
5:35 PM 33.8 °F 25.8 °F 33.8 °F 100% 30.13 in 4.0 mi NNE 10.4 mph 16.1 mph 0.02 in   Overcast
5:55 PM 35.6 °F 29.2 °F 33.8 °F 93% 30.13 in 5.0 mi NNE 8.1 mph - 0.02 in   Overcast
6:15 PM 33.8 °F 25.8 °F 33.8 °F 100% 30.13 in 5.0 mi NE 10.4 mph 18.4 mph 0.01 in   Overcast
6:35 PM 33.8 °F 25.8 °F 32.0 °F 93% 30.13 in 5.0 mi NNE 10.4 mph 16.1 mph 0.01 in   Overcast
6:55 PM 33.8 °F 27.0 °F 32.0 °F 93% 30.13 in 5.0 mi NNE 8.1 mph 16.1 mph 0.02 in   Overcast
7:15 PM 33.8 °F 26.4 °F 32.0 °F 93% 30.13 in 5.0 mi NE 9.2 mph 18.4 mph N/A   Overcast
7:35 PM 33.8 °F 26.4 °F 32.0 °F 93% 30.13 in 7.0 mi NE 9.2 mph 18.4 mph 0.01 in   Overcast
7:55 PM 33.8 °F 25.8 °F 32.0 °F 93% 30.13 in 7.0 mi NE 10.4 mph 20.7 mph 0.01 in   Overcast
8:15 PM 33.8 °F 25.3 °F 32.0 °F 93% 30.13 in 7.0 mi NE 11.5 mph 17.3 mph N/A   Overcast
8:35 PM 33.8 °F 26.4 °F 32.0 °F 93% 30.13 in 10.0 mi NE 9.2 mph - N/A   Overcast
8:55 PM 33.8 °F 26.4 °F 32.0 °F 93% 30.14 in 10.0 mi NE 9.2 mph - N/A   Overcast
9:15 PM 33.8 °F 27.7 °F 32.0 °F 93% 30.14 in 10.0 mi NE 6.9 mph - N/A   Overcast
9:35 PM 33.8 °F 27.7 °F 32.0 °F 93% 30.14 in 10.0 mi NE 6.9 mph - N/A   Overcast
9:55 PM 33.8 °F 27.7 °F 32.0 °F 93% 30.14 in 10.0 mi NNE 6.9 mph - N/A   Overcast
10:15 PM 33.8 °F 29.6 °F 32.0 °F 93% 30.13 in 10.0 mi NNE 4.6 mph - N/A   Overcast
10:55 PM 33.8 °F 28.6 °F 32.0 °F 93% 30.13 in 10.0 mi NE 5.8 mph - N/A   Overcast
11:35 PM 33.8 °F 27.0 °F 32.0 °F 93% 30.13 in 10.0 mi NE 8.1 mph - N/A   Overcast
11:55 PM 33.8 °F 27.7 °F 30.2 °F 87% 30.13 in 10.0 mi NNE 6.9 mph - N/A   Overcast